164P/Christensen (2011)

Japanese version
Home page
Updated on February 1, 2012

---------------------------------------------------------------------

* Profile

* Pictures

* Orbital Elements

Epoch 2011 June 8.0 TT = JDT 2455720.5
T 2011 June 2.34872 TT                                  MPC
q   1.6753299            (2000.0)            P               Q
n   0.14115448     Peri.  325.84952     +0.56283699     -0.77773771
a   3.6531957      Node    88.32745     +0.80704802     +0.44392532
e   0.5414070      Incl.   16.26078     +0.17857215     +0.44503299
P   6.98
From 462 observations 1998 Jan. 24-2012 Jan. 11, mean residual 0".7.
     Nongravitational parameters A1 = -0.04, A2 = +0.0096.

* Finding Charts

* Magnitudes Graph

        m1 = 13.0 + 5 log d + 10.0 log r(t - 150)

        * Gray curve is:  m1 = 11.5 + 5 log d + 10.0 log r

---------------------------------------------------------------------

The orbital elements are published on M.P.E.C. 2012-A52.
The charts are made with StellaNavigator Ver.8 (AstroArts).
The magnitudes graphs are made with Comet for Windows.

---------------------------------------------------------------------

Copyright(C) Seiichi Yoshida (comet@aerith.net). All rights reserved.